Regional Weather Roundup
Issued by NWS Green Bay, WI

Home | Current Version | Previous Version | Graphics & Text | Print | Product List | Glossary Off
Versions: 1 2 3 4 5 6 7 8 9 10 11 12 13 14 15 16 17 18 19 20 21 22 23 24 25 26 27 28 29 30 31 32 33 34 35 36 37 38 39 40 41 42 43 44 45 46 47 48 49 50

000
ASUS43 KGRB 291959
RWRGRB

NORTH-CENTRAL AND NORTHEAST WISCONSIN REGIONAL WEATHER ROUNDUP
NATIONAL WEATHER SERVICE GREEN BAY WI
300 PM CDT TUE JUL 29 2014

WIZ005-009-010>012-018-019-292100-
NORTH CENTRAL WISCONSIN

CITY           SKY/WX    TMP DP  RH WIND       PRES   REMARKS
IRONWOOD       NOT AVBL
MANITOWISH WTR NOT AVBL
ARBOR VITAE    NOT AVBL
EAGLE RIVER    NOT AVBL
LAND O LAKES   NOT AVBL
RHINELANDER    LGT RAIN  70  56  61 VRB3      30.00F
PHILLIPS       NOT AVBL
ANTIGO         NOT AVBL
TOMAHAWK       NOT AVBL
MERRILL        NOT AVBL
$$

WIZ013-073-292100-
NORTHEAST WISCONSIN

CITY           SKY/WX    TMP DP  RH WIND       PRES   REMARKS
IRON MOUNTAIN  NOT AVBL
MARINETTE      MOSUNNY   72  61  68 NW5       29.95F
$$

WIZ017-030-035>037-045-292100-
CENTRAL WISCONSIN

CITY           SKY/WX    TMP DP  RH WIND       PRES   REMARKS
MEDFORD        NOT AVBL
WAUSAU         MOSUNNY   76  53  44 NW16G23   29.99F
MOSINEE        NOT AVBL
MARSHFIELD     MOSUNNY   77  54  44 W9        30.02F
WISC RAPIDS    PTSUNNY   78  53  41 W13       30.03F
STEVENS POINT  NOT AVBL
WAUPACA        NOT AVBL
SHAWANO        NOT AVBL
CLINTONVILLE   NOT AVBL
$$

WIZ038-039-048-051-292100-
FOX VALLEY

CITY           SKY/WX    TMP DP  RH WIND       PRES   REMARKS
NWS GREEN BAY  PTSUNNY   73  56  54 NE12      29.98S
APPLETON       PTSUNNY   75  52  43 NW12G23   29.99F
OSHKOSH        SUNNY     77  54  44 N13       29.99F
FOND DU LAC    MOSUNNY   78  54  43 W15       30.00S
$$

WIZ022-050-052-292100-
EAST CENTRAL WISCONSIN

CITY           SKY/WX    TMP DP  RH WIND       PRES   REMARKS
STURGEON BAY   PTSUNNY   64  59  82 W6        29.98S
MANITOWOC      NOT AVBL
SHEBOYGAN      SUNNY     76  55  48 NW10      29.99S
$$

LMZ563-521-522-541>543-292100-
LAKESHORE

STATION/POSITION TIME  TEMP    WIND        PRES    VSBY  WAVE
                       AIR SEA DIR/SP/G                  HT/PER
                 (UTC) (F)     (DEG/KT/KT) (MB)    (MI)  (FT/S)
SHEBOYGAN LKSHOR 1900   70      20/  3/  5 1015.6F
KEWAUNEE LKSHORE 1900   61     170/  8/ 10 1015.9S
NORTHPORT PIER   1900   67     340/  5/  5 1014.6F
N MID LAKE BUOY  1900   58 56  240/  6/  6 1014.2F         1
S GREEN BAY BUOY 1900   70 68  240/  4     1015.7F
SISTER BAY LKSHO 1900   73        CALM       N/A
CHAMBERS ISLAND  1900   67     140/  2/  6 1014.6F
MENOMINEE LKSHOR 1900   66     340/  3/  3 1015.3S
$$


USA.gov is the U.S. government's official web portal to all federal, state and local government web resources and services.